GFSFLT1_500_rhum_096.txt.gz
RH
12 10 8 5 3 3 3 3 4 6 6 6 8 12 16 17 18 20 21 22 22 22 26 28 29 30 30 29 27 24 23 22 21
12 10 8 5 4 4 4 5 6 6 6 9 13 16 17 18 21 22 23 22 24 27 32 33 32 32 31 30 30 28 24 22 19
14 11 7 5 4 5 5 6 6 7 9 13 16 17 20 21 22 23 24 26 29 33 37 38 38 37 35 34 32 33 29 22 20
15 11 7 6 6 6 6 6 8 10 12 16 18 19 22 24 25 26 27 30 34 37 38 39 38 43 45 39 34 33 35 29 24
16 12 7 6 7 7 7 8 10 12 14 18 21 22 24 25 26 29 31 35 37 36 34 36 34 36 40 40 41 36 35 34 29
16 12 9 8 8 8 8 9 10 13 16 20 24 25 25 26 29 32 34 37 36 35 35 34 33 34 37 40 45 44 38 37 32
18 14 10 10 10 9 9 10 11 13 17 22 25 26 27 27 30 34 36 38 37 37 37 35 36 39 40 45 46 46 43 36 33
19 15 12 12 11 11 12 13 14 16 19 23 27 29 29 29 32 35 39 40 40 40 40 36 39 42 42 41 40 39 40 38 33
22 20 16 14 14 14 15 16 17 18 20 23 28 31 31 30 33 36 40 44 44 44 40 38 41 42 41 39 39 39 41 37 35
28 26 23 20 18 19 19 20 21 21 23 24 26 29 32 32 33 37 41 46 48 46 41 41 42 44 41 40 38 37 39 40 33
29 32 33 30 26 26 27 28 27 27 26 26 28 32 36 38 35 37 43 48 48 47 44 40 39 43 46 43 43 41 37 37 34
19 26 33 35 38 37 39 39 39 38 37 37 38 40 42 43 42 42 47 50 50 49 45 41 45 49 49 47 46 43 43 37 34
16 16 20 25 32 39 45 48 47 45 44 41 42 45 50 52 51 49 49 50 49 48 44 44 52 52 48 46 46 41 44 41 37
32 23 19 18 20 26 35 40 45 43 42 43 50 55 58 58 57 55 54 52 48 44 43 58 57 50 50 50 48 41 44 43 39
55 51 43 35 27 19 23 29 35 38 40 40 46 59 58 56 55 53 50 49 45 47 59 58 55 52 51 58 53 44 44 45 40
83 79 69 64 57 51 32 21 23 29 31 38 43 49 51 48 44 46 45 41 39 48 54 56 56 54 52 59 59 45 49 47 40
87 77 71 60 54 57 63 47 26 27 33 35 39 48 50 45 42 43 42 36 43 57 59 58 57 56 54 65 60 49 44 46 40
75 72 80 84 94 96 96 95 88 31 34 34 37 40 49 48 52 50 52 62 65 58 56 56 54 57 60 67 57 53 49 44 39
88 91 94 96 90 91 96 94 98 95 72 47 48 50 50 55 58 66 63 59 62 55 56 54 50 64 71 66 56 53 49 45 43
94 96 97 96 96 96 97 97 96 96 95 92 96 96 92 90 77 66 64 52 51 49 48 48 72 74 69 64 60 51 47 57 45

GFSFLT1_500_rhum_099.txt.gz
RH
11 10 9 8 6 4 3 3 4 5 6 6 7 11 15 16 17 18 20 20 19 21 23 24 24 29 30 30 30 28 26 25 21
11 10 10 8 5 4 4 4 5 6 6 8 12 15 17 18 19 20 22 22 22 25 26 22 24 27 28 29 32 34 32 28 27
13 11 10 8 5 4 5 5 6 6 8 11 15 17 18 20 22 23 23 24 27 29 25 22 22 23 24 26 28 34 37 34 30
14 13 11 8 6 5 6 6 7 8 10 14 17 18 20 22 23 24 26 28 30 30 26 24 23 25 25 28 29 32 39 42 34
15 15 11 8 7 6 6 7 8 10 12 16 20 22 23 24 25 26 28 31 32 30 28 26 25 26 28 30 31 35 37 36 39
17 16 12 9 8 8 8 8 9 11 13 16 20 24 25 25 26 28 31 33 35 33 31 29 29 28 29 31 33 34 36 36 35
17 18 14 10 9 9 9 9 10 11 13 16 21 24 26 27 27 28 32 35 37 36 34 32 31 30 29 30 35 36 33 33 33
19 19 17 13 11 10 10 10 11 12 14 17 21 25 28 29 29 29 33 36 39 38 37 35 35 31 29 29 37 39 37 35 32
20 19 19 16 14 13 12 12 13 14 16 18 21 24 27 30 31 31 33 36 39 42 41 40 37 35 30 29 38 41 42 40 35
21 22 22 20 17 16 15 16 17 18 19 20 22 24 26 28 32 35 35 36 40 43 44 44 42 37 29 30 42 38 40 41 37
20 23 24 25 24 22 20 20 22 23 24 25 26 28 29 32 34 36 39 40 42 45 47 47 43 37 32 42 42 41 43 42 40
18 20 20 26 28 29 30 28 28 30 32 34 35 35 35 34 34 37 42 46 48 49 49 48 44 38 43 52 49 48 47 44 45
17 17 16 18 22 28 32 34 35 36 38 41 41 40 36 34 34 37 39 44 49 49 48 45 44 45 54 46 52 51 47 46 51
29 24 21 32 29 31 24 22 26 31 35 40 40 39 38 36 40 40 44 48 48 45 41 43 45 53 49 53 52 49 45 46 54
44 41 35 33 29 29 28 23 19 18 21 25 30 37 40 41 43 44 40 40 40 38 39 40 44 52 59 56 52 47 46 56 56
70 62 61 59 64 62 65 63 58 50 36 24 24 31 36 36 35 31 32 34 36 39 42 44 50 57 57 57 56 49 49 59 58
82 89 80 73 74 72 63 60 61 71 77 80 67 31 27 25 26 28 32 36 39 42 46 54 64 60 56 54 49 48 56 57 57
86 83 80 83 78 73 77 88 96 96 95 99 92 76 43 31 34 38 43 48 52 55 64 66 61 54 53 49 48 60 65 61 57
91 93 96 96 96 97 97 97 97 94 83 90 91 92 90 70 68 61 57 59 67 74 73 57 52 53 51 49 57 61 61 60 57
96 94 97 97 97 97 96 97 97 83 83 91 89 87 93 95 86 89 92 89 70 65 62 60 60 51 50 61 62 61 59 57 54

GFSFLT1_500_rhum_102.txt.gz
RH
9 9 9 8 7 5 4 3 3 4 6 6 7 10 14 16 16 17 18 19 19 18 20 20 20 19 19 20 21 22 25 30 35
10 10 9 9 7 6 4 4 4 6 6 7 10 13 16 17 17 18 19 20 20 21 22 22 21 20 20 21 22 22 26 30 35
10 11 10 9 7 6 5 4 6 6 6 9 13 16 17 18 20 21 21 22 22 22 22 23 22 21 20 21 23 25 28 28 30
11 12 10 9 7 6 5 5 6 6 8 11 15 17 19 20 21 22 22 24 24 24 24 25 24 25 24 24 24 27 30 29 29
12 12 12 10 8 6 6 6 7 8 10 12 15 17 20 23 23 23 24 25 25 27 28 28 28 27 26 25 25 28 32 33 33
12 13 13 12 9 7 7 7 8 9 10 13 16 18 22 24 24 24 25 27 29 31 32 31 29 29 30 28 26 26 29 35 38
12 13 14 13 11 9 8 8 9 10 11 13 15 19 23 25 26 26 27 28 30 31 33 32 31 32 32 30 28 27 32 36 37
14 14 16 15 14 11 10 10 10 11 12 13 16 20 23 26 27 28 29 30 31 33 34 35 35 35 35 34 31 30 40 36 38
17 16 17 17 16 14 12 12 11 12 13 15 17 20 22 24 26 27 29 31 33 34 36 36 37 38 37 37 33 32 39 39 40
18 18 18 18 18 16 15 14 13 14 15 16 18 20 22 24 26 27 30 33 35 37 38 41 40 38 38 39 36 35 33 38 46
19 19 20 20 20 20 18 17 16 16 18 19 21 23 24 27 28 30 32 33 34 38 42 43 36 39 36 38 37 36 33 45 46
23 22 22 20 22 24 24 22 22 21 22 24 26 29 31 32 34 34 34 34 34 34 34 38 38 38 34 36 33 33 45 48 46
28 22 24 18 20 25 25 29 30 30 31 30 30 34 35 37 38 37 35 36 33 32 32 36 35 34 33 34 31 34 46 49 52
26 28 26 17 20 19 19 19 22 30 24 24 26 30 32 33 34 34 34 34 32 30 32 34 37 33 32 34 35 47 48 50 45
50 51 18 21 20 21 29 41 34 33 25 18 16 17 18 18 22 28 30 30 28 27 27 27 32 36 36 38 48 52 50 51 43
92 48 60 54 41 38 38 33 32 32 39 44 50 54 55 49 31 24 23 24 24 22 26 28 34 39 43 52 63 57 51 52 44
94 93 67 62 70 66 64 67 61 59 62 59 56 67 75 78 80 82 53 33 28 28 39 35 41 52 56 65 55 52 54 48 48
96 95 92 87 80 75 84 74 80 84 83 77 85 90 76 82 90 89 80 66 48 63 52 54 59 72 76 63 57 58 53 50 50
97 96 96 96 97 97 91 92 94 91 97 96 96 82 72 79 84 93 90 84 80 84 88 82 84 70 67 64 59 53 51 54 55
96 96 97 96 96 96 96 96 95 95 96 96 95 92 72 69 88 100 98 91 89 92 85 79 71 70 57 54 54 52 57 58 60

GFSFLT1_500_rhum_105.txt.gz
RH
11 9 9 8 8 6 4 3 3 3 4 6 6 8 12 15 16 16 16 16 17 17 16 17 19 18 17 17 19 19 22 24 25
12 9 9 9 8 7 5 4 4 4 5 6 8 12 14 16 16 17 18 18 18 18 18 19 21 20 20 20 19 20 22 24 27
13 9 9 9 9 7 6 4 4 5 7 7 10 13 15 16 17 18 18 18 19 20 21 23 23 22 21 21 21 22 23 26 28
12 10 9 10 9 7 6 5 5 6 7 8 11 14 16 16 18 19 19 19 20 21 22 23 24 24 24 24 24 24 25 26 28
12 11 10 10 9 8 7 6 6 6 7 10 12 14 16 17 19 20 20 21 22 23 25 26 27 27 26 26 27 27 26 26 26
12 11 10 10 10 9 8 7 7 7 8 10 12 14 16 18 21 21 22 22 23 25 27 28 30 29 31 30 28 29 29 27 30
12 11 10 10 10 10 9 8 8 8 9 10 12 14 16 20 22 22 23 25 26 27 29 32 32 33 33 32 31 32 34 30 26
13 12 12 13 12 12 11 10 9 10 10 11 12 14 16 20 22 24 25 26 27 28 31 33 32 35 34 35 33 35 36 29 27
16 15 15 14 15 14 14 12 11 11 11 12 12 14 16 19 22 24 25 26 28 29 30 32 28 29 33 39 34 34 32 28 28
18 17 17 17 17 16 15 14 13 13 13 12 13 14 17 19 21 23 25 27 29 31 32 30 27 30 34 30 28 25 28 28 27
21 19 18 18 17 17 17 17 16 15 15 14 15 16 18 20 23 24 28 30 32 34 33 30 27 27 29 27 26 24 24 26 29
22 20 20 19 18 18 18 17 18 17 17 18 19 20 22 24 27 30 33 35 36 36 35 32 30 30 30 30 26 26 29 29 33
24 22 21 20 20 19 22 29 21 21 22 24 25 27 26 29 31 33 36 38 38 38 36 34 29 27 25 25 26 27 29 35 43
30 29 75 25 26 22 33 21 24 26 25 28 23 26 28 28 28 30 30 26 26 26 26 28 27 24 26 23 26 30 32 37 50
36 85 87 30 62 26 30 22 21 16 17 27 38 40 34 22 18 20 25 30 34 26 23 24 24 25 23 30 29 31 42 49 53
83 95 41 81 30 53 19 19 26 23 30 35 31 28 27 35 46 52 55 64 62 62 54 58 31 27 39 43 36 45 55 63 55
95 84 50 56 85 75 46 73 42 52 53 57 65 66 66 63 62 64 69 80 73 79 82 76 64 49 64 58 59 67 63 61 61
94 91 31 53 88 93 91 69 73 81 84 89 86 87 89 87 86 88 78 70 74 80 84 81 78 73 71 72 75 65 62 55 51
93 56 42 74 92 96 97 96 94 92 99 97 97 94 91 93 96 92 81 72 81 84 85 86 85 82 77 69 70 65 62 57 55
95 86 68 96 96 97 96 96 96 96 96 93 96 96 97 96 98 97 96 96 90 92 86 89 90 88 75 72 72 67 64 58 55

GFSFLT1_500_rhum_108.txt.gz
RH
25 14 14 9 8 7 6 4 3 3 3 4 6 7 10 14 14 14 14 15 15 16 16 17 19 18 17 18 17 18 20 21 22
29 25 15 9 8 8 7 5 4 3 4 6 6 9 12 14 15 15 15 15 16 16 16 18 19 20 20 21 21 20 21 22 22
28 24 17 10 9 8 7 6 4 4 5 6 8 11 13 15 15 15 15 16 17 18 18 20 22 23 24 25 22 23 23 22 22
25 22 15 10 9 9 8 6 5 5 6 7 9 11 13 14 15 16 16 17 18 20 21 23 25 26 27 26 26 24 23 22 23
23 19 13 10 10 9 8 7 6 5 6 7 9 11 13 14 16 17 18 20 21 22 22 24 26 27 26 26 27 26 20 17 19
23 21 14 11 11 10 9 8 7 6 6 7 9 11 12 14 17 20 20 21 22 23 25 26 27 28 26 27 24 22 17 14 18
19 17 13 12 12 11 9 9 8 8 7 8 9 11 14 15 18 21 21 22 23 24 25 27 28 26 25 25 19 20 17 14 17
20 15 13 12 12 11 10 10 10 8 8 9 10 11 13 14 17 20 22 23 24 26 27 28 30 28 25 26 25 23 19 19 17
24 17 14 14 13 13 12 12 11 10 10 10 10 11 12 14 16 18 21 23 24 26 28 29 31 29 27 24 26 25 24 21 22
28 20 16 16 15 14 15 14 13 12 12 11 11 12 13 14 16 17 20 22 24 27 29 32 33 31 30 28 27 25 21 21 20
30 26 20 19 17 17 16 16 16 16 14 14 13 14 14 15 17 18 21 23 26 30 33 33 34 33 33 30 29 25 24 19 18
36 30 25 21 18 18 17 17 17 17 17 16 16 16 17 18 19 21 24 26 29 32 36 37 36 35 34 33 28 24 22 22 23
40 33 27 23 21 19 19 21 22 18 18 23 21 18 19 20 24 26 28 34 37 38 31 30 27 28 28 27 23 22 23 29 28
46 38 32 27 24 21 20 25 48 20 35 26 21 25 24 24 22 33 34 31 22 19 19 23 32 32 27 23 30 33 27 44 40
56 45 36 30 24 22 65 83 28 27 32 27 26 22 21 25 34 37 33 22 23 36 51 65 70 69 62 74 63 52 48 57 54
67 57 47 36 38 41 80 77 53 37 40 22 23 23 26 34 28 30 39 54 57 58 66 80 81 82 80 76 74 70 67 64 64
85 81 80 49 58 72 94 50 86 47 43 36 41 42 48 61 77 82 74 75 72 71 82 81 82 78 75 70 74 70 68 64 65
92 92 88 92 95 95 94 94 75 94 41 86 82 83 86 89 99 92 91 89 96 99 83 72 76 84 79 74 71 68 66 67 65
93 93 94 95 96 95 94 89 96 97 97 94 98 89 88 87 98 98 96 93 94 91 87 85 84 85 71 72 74 75 72 69 66
96 96 96 95 96 96 70 71 92 96 97 97 97 96 97 97 97 97 97 92 81 64 64 61 41 38 40 45 50 48 69 67 61

GFSFLT1_500_rhum_114.txt.gz
RH
39 33 16 11 12 14 9 8 6 4 2 3 4 6 7 10 13 13 12 14 14 14 13 13 14 14 16 17 16 13 12 9 8
39 36 25 21 20 17 10 8 7 6 4 3 4 6 8 12 13 13 12 13 15 15 15 14 15 16 18 18 16 13 12 10 8
38 38 28 23 24 20 14 9 8 7 5 4 5 6 9 13 14 13 13 14 14 14 16 17 16 17 19 18 16 15 12 11 10
42 40 30 22 21 18 13 9 9 7 6 5 5 7 9 12 14 14 13 14 15 16 17 18 20 21 21 19 18 14 13 11 11
42 42 33 21 18 16 12 10 9 8 7 6 5 7 8 10 12 14 14 14 16 19 20 20 22 22 23 20 18 18 17 17 15
42 39 36 20 16 15 12 11 10 9 8 7 6 6 7 9 12 12 15 15 16 20 23 23 23 23 27 25 24 23 22 22 20
42 40 38 24 15 15 13 12 11 10 8 8 7 6 7 8 11 12 15 16 18 20 22 23 24 24 27 28 28 26 24 22 21
44 46 41 30 19 15 14 13 12 11 9 8 8 7 7 8 10 11 13 15 17 18 20 21 23 24 26 29 30 29 28 27 22
49 52 48 32 20 17 15 14 13 12 11 9 9 8 8 9 10 11 12 14 15 16 18 20 22 24 25 26 29 30 28 23 22
79 58 50 42 27 18 16 15 15 14 13 11 10 9 9 9 10 11 12 13 14 16 17 19 21 23 21 23 27 24 23 22 22
80 63 55 45 36 24 17 15 16 15 15 14 12 11 10 11 11 11 12 13 15 16 18 20 21 21 21 25 23 22 21 39 56
78 66 59 50 40 33 25 18 17 17 17 16 15 14 13 12 14 15 14 15 16 17 18 20 21 34 39 35 20 20 40 56 60
85 66 64 56 47 38 28 24 20 19 18 18 17 16 15 18 16 18 16 17 17 20 21 23 42 39 38 31 22 38 51 58 60
83 68 66 60 54 43 37 30 26 23 19 19 18 18 16 18 44 24 18 19 21 26 20 38 42 40 37 32 47 54 56 64 64
80 69 65 61 57 52 44 42 35 28 22 21 20 19 17 28 74 31 32 27 27 23 32 44 45 51 57 56 59 60 65 64 62
85 80 74 67 64 59 51 46 37 32 27 24 24 20 19 40 54 61 42 56 23 29 41 48 57 67 61 70 64 64 70 68 68
91 84 79 71 67 65 53 45 42 49 49 58 51 43 37 38 50 93 47 54 30 46 49 63 77 70 69 65 65 70 70 66 50
97 90 86 83 86 66 82 52 41 80 95 61 39 37 28 58 91 97 81 72 44 67 74 86 88 79 75 74 68 65 60 40 37
95 96 95 95 86 95 84 83 91 96 95 89 69 82 76 95 98 91 95 79 78 89 87 86 82 92 90 74 58 41 23 36 37
94 94 94 95 96 95 96 97 96 97 98 98 95 93 88 95 95 93 98 96 91 92 93 79 85 96 84 80 60 45 49 41 29

GFSFLT1_500_rhum_117.txt.gz
RH
31 39 29 11 9 12 15 9 7 6 4 2 3 5 7 8 10 12 12 12 12 12 11 11 12 13 15 15 13 10 8 7 7
28 35 39 19 16 15 16 11 9 7 5 4 3 5 6 8 11 12 13 13 13 13 14 14 14 14 15 15 13 12 10 9 8
40 38 40 32 19 20 18 14 9 8 6 5 4 4 6 8 12 13 13 14 14 14 14 15 16 18 18 16 14 14 13 12 12
39 45 42 39 22 19 16 14 10 9 7 6 5 4 6 8 12 14 14 13 15 16 16 16 17 19 19 20 17 17 17 16 15
31 52 43 42 33 18 16 14 11 9 8 7 6 5 6 8 10 12 14 14 15 16 18 18 18 19 21 23 22 21 19 20 16
34 32 43 43 38 25 15 13 11 10 9 7 7 6 6 7 9 11 13 14 15 16 18 20 20 20 22 22 24 23 22 18 17
47 32 29 40 41 31 17 13 12 11 10 9 8 7 6 6 8 9 11 13 15 16 18 19 20 21 21 22 22 22 19 19 21
59 41 32 40 41 36 24 15 13 12 12 10 9 8 7 6 7 9 10 12 14 15 16 17 18 19 21 22 22 20 20 24 24
70 56 39 39 46 40 29 19 15 14 13 12 10 9 8 8 7 8 10 11 12 13 14 15 16 18 20 20 20 18 21 28 22
66 69 53 40 43 47 32 22 18 16 14 14 12 11 10 9 8 8 9 10 11 12 14 14 15 17 20 20 22 36 38 34 20
60 67 69 64 48 48 44 30 21 18 16 15 14 13 12 11 10 9 9 10 11 12 13 15 16 18 20 19 40 39 39 34 26
91 67 66 76 72 49 48 38 28 22 19 17 16 16 15 13 12 11 10 11 12 13 16 19 17 19 20 34 41 39 38 33 35
94 78 64 78 79 66 50 47 39 27 21 19 19 18 17 16 14 13 11 15 16 20 18 21 19 22 20 37 43 43 44 45 45
97 96 83 74 76 71 55 52 48 41 32 26 22 21 19 18 17 15 13 16 36 50 30 26 24 24 22 43 47 50 55 50 52
96 87 90 80 83 81 64 60 54 49 42 35 29 24 22 21 19 18 15 22 53 56 49 50 39 21 26 42 52 60 58 61 53
96 96 88 76 82 95 72 63 60 53 48 41 36 30 27 25 22 19 18 27 46 63 65 60 56 23 33 49 59 65 64 59 54
94 95 95 88 99 84 83 69 63 54 53 42 36 36 48 74 68 59 22 25 36 62 74 68 52 33 46 56 73 75 69 69 67
99 97 99 95 91 94 94 88 77 88 57 75 75 52 59 66 80 89 41 43 50 69 91 93 60 40 58 70 77 77 71 67 66
98 97 98 97 98 96 97 95 94 68 82 94 76 83 83 78 94 65 44 52 86 92 99 84 74 58 73 76 80 87 76 77 61
95 97 96 96 95 97 95 94 94 90 94 94 93 97 95 95 72 76 87 93 97 98 94 84 78 83 81 79 79 78 81 75 49

GFSFLT1_500_rhum_120.txt.gz
RH
35 22 34 29 10 8 12 11 11 8 6 3 2 3 5 7 8 11 12 12 12 12 13 11 12 12 14 14 13 11 10 9 8
33 24 24 36 25 10 12 13 11 10 7 4 3 4 5 6 8 12 13 13 13 12 13 13 13 14 15 15 15 13 12 12 12
33 30 29 30 36 21 15 14 13 10 9 6 4 4 5 6 8 11 12 13 13 13 13 13 14 16 17 17 18 16 14 13 11
42 32 35 36 36 36 19 15 13 12 9 8 6 4 5 6 7 12 13 14 13 13 14 13 15 17 17 17 17 17 16 15 14
44 39 33 47 36 41 34 17 12 12 10 9 8 6 5 6 7 10 12 14 14 14 15 15 15 16 18 18 17 17 17 16 16
37 45 42 38 44 34 41 29 15 10 10 10 8 7 6 6 6 8 11 12 14 14 15 16 17 18 19 19 18 16 17 16 17
43 38 48 45 34 33 33 38 24 13 11 10 10 8 7 6 6 6 9 11 12 13 14 15 15 17 18 19 19 18 16 16 17
60 44 41 46 48 31 29 36 34 17 13 11 11 10 8 7 7 6 7 9 10 12 12 13 14 15 16 17 18 19 18 20 34
83 79 57 45 47 47 33 34 38 28 15 13 12 11 10 9 8 8 7 7 9 10 11 12 13 13 14 16 17 19 18 33 40
99 90 64 51 43 50 45 37 38 35 23 17 14 13 12 11 10 9 8 8 8 9 10 11 12 12 13 15 17 19 19 40 42
95 94 74 55 54 44 50 48 38 38 31 20 17 15 14 13 12 11 10 9 9 9 9 11 12 13 16 16 18 20 21 36 42
84 98 94 68 64 48 51 58 50 41 41 30 21 17 16 15 15 14 13 12 11 10 10 11 13 15 20 22 19 22 21 36 46
95 94 96 88 75 60 46 62 68 56 42 40 33 24 18 17 17 16 16 14 14 13 13 15 21 29 37 38 24 25 21 36 50
93 99 98 90 86 80 79 69 70 79 57 40 41 35 26 20 19 18 18 18 17 17 15 14 25 42 55 56 51 36 21 30 51
24 78 74 96 100 89 98 67 98 86 74 52 44 45 37 30 23 23 23 23 22 20 19 18 20 46 44 57 70 57 28 31 56
7 10 47 90 97 88 96 90 75 92 82 64 53 50 47 40 32 27 27 23 35 37 34 32 36 36 47 54 80 66 43 42 59
9 6 32 60 98 76 97 92 76 92 90 81 63 54 49 45 39 29 80 65 62 76 57 60 27 43 53 51 82 78 50 50 67
13 8 5 57 81 97 97 96 80 99 93 85 73 71 57 49 76 82 71 60 82 76 74 78 51 40 48 73 81 81 63 54 77
29 8 5 79 91 97 96 96 96 93 95 88 84 87 89 93 92 92 94 62 72 75 85 86 44 37 74 88 85 81 75 89 85
18 20 22 63 98 97 96 97 97 95 97 95 98 95 93 94 94 94 89 73 86 79 88 72 92 94 92 88 88 94 83 80 80

GFSFLT1_500_rhum_123.txt.gz
RH
38 35 27 21 24 11 9 12 12 9 8 6 4 3 5 7 7 8 10 11 11 11 11 11 10 10 11 13 13 14 12 10 9
40 39 35 24 25 22 11 12 12 10 8 7 5 3 4 6 7 8 10 12 12 12 12 12 12 12 12 14 15 15 12 11 12
40 40 37 35 29 28 21 14 12 10 9 8 6 5 4 5 6 8 10 13 13 13 13 13 13 13 14 16 17 17 16 14 13
38 39 37 37 39 36 31 26 18 11 9 9 8 6 5 5 6 7 8 11 13 14 13 14 14 14 14 16 18 18 18 18 16
26 27 35 36 40 44 38 34 30 19 11 9 9 7 6 5 5 6 7 10 12 14 14 14 14 14 16 16 18 18 18 20 20
47 27 29 31 32 40 48 38 37 32 20 11 9 8 7 6 6 6 6 8 11 12 14 14 14 15 16 16 17 18 18 18 17
62 59 47 38 36 33 43 40 36 38 32 20 11 10 8 7 6 6 6 7 8 10 12 12 13 14 14 15 15 16 17 17 16
66 66 69 56 43 36 34 42 35 34 38 29 18 12 10 9 7 7 7 6 7 8 9 11 12 12 13 14 14 16 15 17 18
48 70 76 64 56 46 45 40 44 36 34 37 26 17 12 11 10 9 8 8 8 7 7 9 10 11 12 12 13 14 16 18 19
13 36 70 74 84 80 69 47 43 44 38 35 35 24 17 14 13 11 10 9 8 8 8 8 8 9 10 11 12 14 22 25 21
11 54 65 81 91 93 80 65 45 44 51 44 36 34 23 19 16 14 12 11 10 10 10 9 9 9 10 11 13 16 20 29 30
8 24 48 81 91 88 97 74 57 50 54 54 44 36 32 23 20 17 15 14 13 13 12 12 12 12 12 13 16 23 39 45 47
6 8 20 69 88 92 96 91 72 52 54 62 56 44 39 33 27 22 18 17 16 16 16 16 18 16 15 15 18 31 52 49 60
9 6 7 66 81 91 94 96 83 74 64 74 74 64 49 39 35 29 23 20 19 19 20 22 20 19 19 17 16 26 44 44 48
12 6 6 18 68 82 97 98 93 89 98 76 75 72 75 52 41 35 32 24 22 21 21 22 24 26 32 27 19 28 36 51 51
12 11 7 6 18 75 97 96 98 90 97 92 89 80 86 76 51 42 41 35 30 26 23 27 28 45 54 56 46 54 40 54 59
29 10 9 9 8 9 36 99 94 96 95 96 90 94 95 80 65 52 49 46 40 39 32 45 70 65 70 77 64 71 35 53 46
36 22 14 11 9 8 8 34 78 75 96 94 93 95 94 84 75 67 60 59 57 63 41 83 73 65 75 72 69 89 70 47 66
36 25 14 13 11 11 16 14 20 64 97 96 95 97 96 96 93 90 68 85 92 82 88 95 70 80 73 68 79 87 74 78 81
33 20 15 11 10 23 26 15 12 92 88 100 98 96 95 97 96 97 94 95 95 94 96 95 96 78 50 64 88 81 72 72 83

GFSFLT1_500_rhum_126.txt.gz
RH
42 35 30 26 20 25 11 9 10 9 7 5 4 3 3 5 7 8 8 9 11 11 11 11 11 11 11 12 14 15 15 13 12
41 40 36 31 28 21 25 10 12 9 8 7 5 4 3 4 6 7 8 9 11 11 11 12 12 12 12 13 15 16 17 15 14
42 43 39 35 31 29 23 24 13 13 10 8 7 5 4 4 5 6 8 9 11 12 12 12 13 14 14 14 15 16 17 17 16
41 37 46 39 36 31 34 28 26 19 16 10 8 6 5 4 5 5 7 9 11 12 13 13 13 14 15 15 16 17 17 17 17
50 43 43 38 36 38 35 38 33 29 25 20 11 8 6 5 5 5 6 7 9 12 12 13 14 14 15 14 16 17 17 17 18
52 52 50 42 31 29 36 39 46 37 33 30 23 13 9 7 5 6 6 6 7 9 11 12 13 13 15 16 15 15 15 16 18
31 42 51 58 59 41 31 34 41 43 35 34 33 26 15 10 8 6 6 6 6 7 8 9 11 12 13 14 15 14 14 14 15
32 40 36 62 63 66 51 40 38 46 37 30 31 34 26 17 11 10 7 6 7 6 7 7 8 10 11 12 13 13 12 13 14
24 18 30 42 74 74 70 58 37 43 44 38 29 30 34 25 16 12 11 10 8 8 8 7 7 8 8 9 10 10 11 12 15
23 41 45 50 50 61 70 62 61 50 51 47 42 33 31 34 27 16 13 12 11 10 9 8 8 8 8 9 9 10 10 12 16
24 40 44 46 64 43 52 67 70 76 79 56 55 46 36 32 34 29 18 15 13 12 11 11 10 10 10 11 11 10 11 13 16
10 11 31 53 53 80 40 70 88 91 94 74 65 61 56 45 36 33 29 23 17 15 14 14 13 13 15 16 14 13 13 13 16
12 11 9 9 35 64 72 57 79 80 91 96 71 62 67 57 50 39 34 28 23 20 18 17 16 16 17 18 15 15 16 15 16
13 11 11 10 6 8 26 70 82 98 93 95 93 85 63 63 62 53 46 37 29 26 21 19 19 19 20 20 21 21 20 23 21
16 14 13 12 10 6 7 65 91 93 93 89 92 91 82 73 71 74 61 48 39 34 28 23 24 22 22 24 24 25 25 38 57
22 18 15 13 12 6 6 7 34 90 97 99 85 87 97 96 92 85 83 70 56 43 37 31 30 31 28 25 26 27 37 49 68
24 19 16 14 18 16 9 7 8 36 61 98 98 92 97 94 97 96 96 94 81 51 44 40 43 33 32 33 39 68 69 70 72
26 22 24 25 26 25 12 8 9 10 32 82 89 96 94 99 88 96 96 97 95 94 55 52 45 38 37 45 66 85 73 56 58
35 32 35 36 37 36 32 11 10 10 9 23 26 83 99 99 84 89 98 96 96 94 89 68 78 55 79 82 85 97 93 66 62
46 45 43 40 36 38 37 26 16 12 13 17 14 20 61 85 99 97 97 96 96 95 93 95 94 82 93 91 95 94 96 95 91

GFSFLT1_500_rhum_129.txt.gz
RH
41 41 39 30 25 18 23 12 9 12 10 7 5 3 3 4 5 7 8 9 10 12 11 12 12 12 11 12 13 15 16 16 14
40 41 40 40 32 25 19 24 13 12 13 9 7 5 4 3 4 5 7 8 10 12 12 12 12 12 13 12 13 14 16 17 17
45 44 42 38 38 34 26 21 24 16 14 13 9 7 5 4 4 5 6 8 9 11 12 13 13 13 14 14 14 15 16 16 16
38 46 49 47 43 35 33 28 25 26 24 18 15 10 7 6 5 5 5 6 8 9 12 13 13 13 14 15 14 15 16 16 16
32 44 45 48 47 49 36 32 30 32 30 32 25 19 12 8 6 5 5 5 6 8 9 12 13 14 14 15 16 15 15 15 14
32 44 59 61 57 55 46 33 28 28 34 34 36 31 23 16 10 8 6 5 6 6 7 8 10 12 13 14 15 15 15 14 13
24 43 40 44 57 64 64 56 34 27 28 39 37 36 36 28 20 13 10 8 6 6 6 6 7 8 10 11 12 13 13 13 12
29 30 47 46 46 49 62 64 62 50 33 31 36 34 33 37 32 23 16 11 10 7 7 7 7 7 7 8 8 9 9 10 10
36 40 41 33 21 33 42 66 75 63 57 49 37 36 31 29 35 34 27 19 13 11 9 8 8 8 8 8 8 8 9 9 9
34 47 48 47 51 62 58 42 54 75 78 62 42 34 38 36 30 32 34 30 21 15 13 12 10 9 9 9 9 10 10 10 9
28 39 48 47 52 57 67 69 57 56 66 70 58 65 69 46 40 34 35 35 30 23 17 15 13 12 11 11 11 13 14 13 12
17 15 18 25 63 60 58 88 82 74 58 73 78 86 91 85 52 46 42 42 37 31 25 20 17 16 15 14 14 15 15 15 14
20 18 14 11 13 25 48 66 82 80 78 84 95 96 88 94 79 56 53 49 48 42 33 23 19 18 17 16 17 16 17 18 18
22 22 20 14 10 9 9 14 42 51 79 78 72 88 84 93 94 88 69 66 54 53 44 38 32 26 24 21 19 18 19 20 17
28 25 24 20 16 12 10 10 14 11 20 31 98 91 87 83 94 90 92 83 70 64 59 56 44 38 30 28 25 24 20 20 21
38 31 27 25 22 16 12 11 10 8 6 7 88 79 98 97 90 97 95 97 96 88 68 74 59 49 46 36 30 29 22 20 22
44 40 35 30 26 22 18 14 12 10 8 7 9 18 77 89 96 86 96 93 96 96 96 92 95 85 66 50 37 30 26 21 22
55 48 42 34 29 25 23 19 15 13 13 13 9 9 8 18 44 68 94 96 97 99 98 82 95 96 94 95 81 32 32 32 39
66 54 47 43 36 31 26 21 19 19 23 29 26 13 9 9 11 21 53 89 99 98 97 93 86 94 96 96 95 59 42 66 86
61 64 55 47 42 39 34 27 30 36 37 37 36 36 23 15 13 11 16 30 59 90 96 98 98 98 95 97 97 94 94 95 94

GFSFLT1_500_rhum_132.txt.gz
RH
42 43 43 41 36 26 18 20 16 9 11 10 8 5 3 3 3 4 6 7 8 10 12 12 12 12 12 13 12 12 14 15 16
41 44 41 42 40 36 28 19 20 18 12 13 10 8 6 4 3 4 5 6 7 8 10 12 12 12 13 13 14 14 14 15 15
33 37 41 44 42 40 37 31 22 20 21 15 15 11 8 6 4 4 4 5 6 7 8 10 12 12 13 13 14 14 15 15 15
36 42 45 44 48 51 47 40 33 24 22 21 17 17 15 10 8 5 4 4 5 6 7 8 10 12 13 13 14 14 14 14 14
27 31 38 42 54 58 55 51 46 35 28 26 24 23 23 19 13 9 7 5 5 5 6 7 8 9 11 13 13 14 14 14 13
26 28 29 41 56 70 65 55 52 44 36 30 27 29 28 29 24 17 13 10 8 6 6 6 6 7 8 9 10 11 11 12 12
33 38 31 34 53 63 66 68 69 61 46 35 32 31 37 33 34 30 24 18 13 10 9 7 6 6 6 7 8 8 9 9 9
29 33 41 26 24 45 51 53 58 68 68 55 44 36 33 38 32 34 33 29 22 16 12 10 9 7 7 7 7 8 8 8 8
22 25 38 44 40 42 32 24 24 34 55 63 64 50 44 39 35 34 30 33 33 24 18 14 12 10 9 9 8 8 8 9 9
20 21 24 43 53 51 46 46 54 49 39 47 66 64 66 56 44 42 37 31 34 34 29 19 15 14 12 12 11 11 10 10 11
17 18 28 43 49 64 54 59 78 76 66 58 40 43 63 71 52 45 69 49 39 36 36 33 26 20 16 14 13 13 13 13 13
22 20 18 23 38 47 70 78 86 85 74 82 73 55 45 56 62 70 72 82 63 44 41 39 38 35 28 21 17 15 15 15 15
24 28 23 20 20 27 28 25 78 79 65 76 81 63 50 51 60 65 84 91 90 67 57 50 44 45 40 32 25 22 19 17 16
27 26 28 25 22 22 20 13 12 23 27 51 64 56 54 52 62 72 79 72 85 87 67 69 59 57 52 45 38 29 28 27 23
35 32 33 30 27 25 22 23 19 10 9 9 12 14 12 13 33 81 78 85 79 81 93 93 94 68 63 61 66 59 41 29 25
38 46 42 35 29 29 27 24 22 19 13 11 11 10 10 8 7 44 87 68 91 85 97 97 96 96 95 86 74 95 93 44 67
18 48 53 45 38 34 34 31 28 26 21 15 13 11 11 11 8 8 10 24 75 41 69 66 90 97 96 97 96 87 91 95 90
19 28 39 51 50 44 42 40 35 32 28 23 20 16 14 11 12 13 12 9 8 9 13 22 52 94 94 97 97 93 97 94 94
24 18 15 37 56 56 49 47 42 36 32 28 24 20 18 16 20 27 35 36 23 12 11 12 12 20 64 99 97 98 92 89 86
18 19 25 37 50 62 64 55 50 44 38 32 27 24 24 26 28 30 32 35 36 32 24 18 14 19 43 33 50 69 93 82 72

GFSFLT1_500_rhum_135.txt.gz
RH
34 39 44 46 42 39 34 25 19 19 10 12 13 8 5 3 3 4 4 5 6 7 8 10 12 12 12 12 13 13 14 15 15
23 35 41 43 46 43 38 36 31 21 20 12 13 13 9 6 4 3 4 4 5 6 7 8 11 12 12 12 12 13 13 14 14
35 29 29 42 50 46 44 38 37 35 26 22 17 14 14 11 8 6 4 4 4 5 6 7 8 10 12 13 13 12 12 13 13
26 33 39 43 45 54 55 52 46 44 39 31 26 22 18 17 13 11 8 6 5 5 5 6 7 8 9 11 12 13 13 13 12
24 18 19 34 41 50 55 61 59 51 47 43 34 30 29 26 22 19 15 10 9 7 5 5 6 6 7 8 9 10 12 11 12
55 36 22 26 34 40 48 63 66 61 53 47 41 37 32 31 32 29 25 21 15 11 9 8 6 6 6 6 7 7 8 9 9
49 42 39 31 30 30 38 50 70 69 65 61 50 43 39 38 36 39 34 31 28 24 18 13 10 9 8 7 7 7 7 7 8
28 40 39 34 30 24 28 38 40 36 41 52 60 56 45 43 43 37 37 36 33 32 29 24 18 13 11 10 9 8 8 8 8
17 22 42 38 29 35 27 25 35 41 32 27 28 45 57 50 49 49 46 39 36 35 34 34 29 21 15 12 11 11 10 10 10
16 18 18 26 26 27 33 40 42 35 30 37 32 29 43 55 59 49 52 53 45 42 39 34 32 32 27 20 16 13 13 13 13
20 20 21 20 19 20 20 37 49 42 52 66 65 61 45 29 35 48 62 66 51 45 50 52 44 38 37 36 31 25 20 17 16
26 26 25 20 41 38 22 29 47 60 60 65 72 72 62 60 46 30 37 64 65 56 66 70 68 55 49 45 45 43 37 27 22
71 60 34 20 19 22 23 20 23 36 56 70 82 77 74 72 67 56 41 31 51 61 71 86 91 80 62 52 52 60 63 51 41
30 33 32 25 27 24 22 24 21 22 30 33 24 53 59 45 54 58 36 19 55 72 68 67 72 87 82 68 78 76 83 68 69
19 15 24 25 24 31 30 26 24 24 23 22 16 15 13 12 11 12 14 14 9 15 88 86 89 88 84 90 94 97 94 79 83
11 9 11 15 20 35 38 33 26 28 29 25 23 22 18 11 10 10 11 11 10 9 8 30 51 99 81 87 76 76 91 97 98
21 13 10 8 10 21 38 47 42 34 32 28 28 25 24 23 17 14 12 11 11 11 10 10 10 9 9 10 23 44 73 91 90
92 89 13 10 10 12 23 39 49 47 41 35 29 28 28 28 26 22 19 15 13 14 20 27 32 32 23 13 11 14 23 51 70
98 98 47 16 16 11 10 19 38 47 50 49 41 32 27 30 28 27 23 20 19 22 24 30 34 34 36 32 26 19 14 14 26
81 80 59 60 35 12 9 10 13 21 29 51 54 46 40 33 28 26 27 25 27 30 35 35 37 36 35 36 36 32 29 26 23

GFSFLT1_500_rhum_138.txt.gz
RH
34 36 36 40 43 44 40 38 36 28 21 18 10 13 11 8 4 3 4 5 6 7 7 8 10 11 11 11 11 12 12 13 13
28 23 33 38 40 42 41 40 39 36 34 27 22 13 12 10 10 6 4 4 5 6 6 7 8 10 11 12 12 12 11 12 12
31 28 34 25 37 44 46 44 43 40 38 37 31 26 19 14 12 10 8 6 4 4 5 6 7 8 9 10 12 12 12 12 12
46 30 27 33 37 35 45 49 49 46 44 43 40 35 32 28 19 16 13 10 8 6 5 5 5 6 6 8 8 10 11 12 12
52 62 34 24 19 28 42 46 49 53 52 49 46 43 38 35 34 30 22 19 16 11 9 8 6 6 6 6 6 7 7 8 9
25 48 55 44 35 21 27 33 40 45 50 53 51 47 43 38 38 32 32 33 26 22 18 13 10 9 8 7 6 6 6 7 7
22 29 44 52 46 38 30 27 25 33 43 53 53 51 54 46 40 36 35 38 39 35 30 27 23 18 13 10 9 8 7 7 7
29 34 31 33 44 42 34 31 24 20 33 48 55 52 52 56 51 41 37 39 44 42 40 35 32 28 24 18 14 11 10 10 9
19 23 32 28 22 33 40 32 27 23 19 21 27 29 27 36 61 61 46 43 45 40 44 41 40 38 35 30 26 18 14 13 12
20 17 57 60 32 59 43 35 26 29 32 29 32 24 19 21 23 54 64 55 50 49 49 51 47 43 42 42 35 29 24 19 17
17 20 20 24 22 26 28 24 26 24 23 33 42 37 41 48 39 31 46 66 64 56 59 65 53 50 55 59 55 44 40 43 43
24 37 25 24 22 20 22 23 43 68 22 28 43 57 53 59 70 67 65 59 47 39 46 66 66 60 54 68 76 74 52 54 55
10 15 18 20 26 30 32 29 28 50 34 27 34 44 47 63 72 80 82 87 78 58 44 36 44 49 55 68 86 87 81 65 59
45 28 59 64 72 51 38 33 24 42 41 31 29 30 31 46 53 48 69 53 44 62 52 18 16 43 66 73 73 90 87 81 84
70 76 74 74 74 86 58 47 34 26 25 26 28 26 28 37 38 24 18 15 12 10 11 14 9 8 20 66 84 85 85 76 86
76 98 88 95 89 98 89 48 30 28 31 26 24 23 25 25 26 24 22 22 16 11 10 11 10 11 11 16 10 41 62 15 28
29 89 98 99 94 92 80 39 24 21 25 22 28 26 24 27 28 26 25 23 23 21 16 15 12 12 13 14 20 24 26 20 13
28 58 77 79 72 61 54 20 16 19 17 13 11 15 23 33 32 28 27 29 28 27 25 21 18 15 15 18 24 30 34 34 33
29 81 98 97 90 97 90 61 25 12 11 11 9 6 6 11 23 36 32 32 31 29 28 26 23 21 21 24 29 34 35 36 34
41 63 97 99 100 88 98 89 35 13 11 10 8 7 6 6 6 9 37 42 38 36 32 28 26 25 26 28 32 34 36 37 39